Wind_Speed
5 4 3 3 4 5 8 6 12 14 13 14 16 19 21 21 20 18 19 21 21 21 20 20 20 20 19 18 17 16 16 16 16 16 15 14 14 15 15 15 15 15 14 14 14 13 12 13 13 12 14 14 12 11 11 10 9 7 7 8 8 7 6
2 4 3 2 3 4 7 9 10 14 15 13 15 16 18 22 23 20 19 21 21 21 21 20 20 20 19 19 17 17 17 16 16 16 16 16 15 15 15 15 15 15 15 14 15 15 14 14 14 13 13 15 14 13 13 12 11 10 9 9 8 8 8
2 5 3 2 2 3 6 9 7 8 14 18 19 17 17 23 24 21 20 22 22 21 21 20 21 20 19 19 18 18 18 16 17 17 16 16 16 16 15 16 16 15 15 15 14 15 14 15 15 14 14 13 14 14 14 13 12 12 11 10 9 9 10
3 4 3 1 1 3 5 6 7 7 7 9 11 11 14 22 25 23 22 21 21 22 21 21 20 20 20 20 19 18 19 18 17 17 17 16 17 17 16 16 16 15 15 15 14 13 14 15 16 16 16 14 14 14 15 14 13 13 13 12 12 11 11
2 0 1 1 1 2 3 4 5 6 8 4 4 4 11 17 20 20 21 22 21 21 20 20 20 19 19 19 19 18 19 19 19 18 17 17 17 17 17 16 16 16 15 16 16 15 14 14 15 17 17 16 15 14 14 15 14 14 14 14 13 12 11
5 2 3 2 1 2 3 3 4 4 5 5 5 3 5 9 7 6 9 14 19 20 20 19 18 19 19 19 19 18 18 20 20 19 18 18 18 18 18 17 16 16 16 16 16 17 16 14 14 15 16 17 16 15 15 15 15 15 15 15 14 13 12
5 1 2 3 2 2 3 5 7 7 7 6 3 2 0 2 2 2 4 7 14 18 20 20 18 17 18 18 18 18 18 19 20 19 19 18 18 18 18 18 18 18 17 17 16 17 17 17 16 15 15 16 16 16 16 17 16 15 15 16 16 15 14
6 3 4 4 4 4 5 6 8 9 10 10 4 1 2 4 5 7 5 3 9 15 13 13 16 17 18 18 17 18 17 18 19 19 20 19 19 19 19 18 19 19 18 18 18 17 17 18 18 17 16 16 16 16 17 18 18 17 16 16 17 16 14
6 5 5 5 5 5 5 8 11 9 9 11 10 5 1 5 6 7 4 0 4 8 5 5 7 11 15 15 14 15 16 16 17 18 18 19 19 19 19 19 18 19 19 18 18 19 19 18 18 19 19 18 18 17 17 17 18 18 17 16 16 16 15
4 5 6 3 1 2 2 5 10 10 8 9 10 10 6 4 2 2 0 4 1 5 3 4 7 9 9 11 10 9 9 10 13 16 18 19 20 19 19 19 18 18 19 19 18 18 19 20 19 19 20 20 19 19 18 16 16 16 17 17 16 16 16
5 6 6 3 1 1 1 4 5 5 6 7 7 9 10 8 4 1 3 1 3 3 5 7 9 9 9 12 13 9 6 9 14 13 14 15 16 17 18 18 19 18 17 18 18 18 17 19 20 19 19 20 19 19 18 17 17 16 16 17 17 17 17
6 6 8 7 5 4 3 4 5 4 3 5 6 7 9 9 8 5 6 8 6 7 6 7 11 13 9 10 16 14 11 11 14 15 14 13 14 14 14 16 18 18 19 18 17 18 17 17 19 19 19 19 18 18 18 18 18 18 17 17 17 17 17
7 7 9 9 7 6 6 6 6 6 5 5 6 6 7 8 10 9 6 7 4 2 2 2 6 10 6 6 11 13 12 14 14 13 15 16 15 13 11 16 22 19 17 18 19 19 18 18 18 18 18 17 17 17 17 17 17 18 18 18 18 18 18
9 9 9 9 8 7 7 7 7 7 8 7 5 5 5 4 4 6 6 5 5 6 6 5 3 2 2 3 6 8 9 11 13 11 12 14 15 13 11 14 20 22 20 16 16 18 18 17 16 16 17 17 17 17 17 16 16 17 18 19 19 18 18
10 9 9 9 8 7 6 6 6 7 9 9 8 6 4 3 2 2 3 3 3 5 8 7 6 5 3 3 5 5 7 10 10 11 12 12 12 13 14 14 13 15 20 22 16 13 13 13 14 14 13 15 18 18 15 13 12 13 15 17 19 18 17
10 10 9 9 8 7 7 7 7 8 8 8 8 8 7 6 5 3 2 2 4 2 4 6 6 6 4 2 4 6 8 9 11 12 13 12 11 10 12 11 9 10 15 18 16 13 10 11 14 13 8 8 13 15 15 14 13 14 14 15 18 18 18
10 9 9 8 7 7 7 8 8 8 9 9 9 9 8 8 7 6 4 2 2 3 3 5 5 4 3 3 3 5 7 7 8 10 12 12 11 10 9 9 8 8 10 13 13 16 17 14 14 14 11 8 8 11 15 19 19 19 17 14 14 15 17
9 9 9 8 8 7 7 8 8 8 9 9 9 9 8 8 8 8 7 6 4 3 3 3 3 3 3 3 2 4 5 5 5 7 9 10 10 11 11 10 10 9 9 12 12 13 16 16 14 14 14 12 9 7 10 15 16 17 17 16 15 14 14
9 9 7 6 6 6 7 8 9 9 10 9 9 10 9 9 9 10 10 9 7 6 6 6 5 3 1 2 3 6 7 7 5 5 6 6 7 9 10 10 10 10 10 13 13 13 13 14 13 12 11 10 8 5 4 7 11 14 15 15 16 16 15
7 8 7 5 5 4 6 8 9 10 11 11 11 11 11 12 12 13 12 11 11 10 10 10 10 9 7 3 2 5 6 6 5 6 5 4 4 6 7 8 10 10 10 11 12 12 13 13 14 14 11 9 10 8 5 6 8 10 10 11 13 14 15
6 6 7 6 5 5 7 9 10 11 11 11 12 14 15 14 14 15 15 15 14 13 13 13 13 12 11 10 8 5 5 6 5 4 4 4 4 5 5 7 8 9 10 11 11 11 12 13 14 14 13 11 10 7 5 7 7 8 8 8 10 11 12
6 5 6 7 5 4 7 9 9 10 11 11 13 15 18 18 17 17 18 17 16 14 14 15 15 14 14 13 12 10 9 10 9 8 7 6 5 4 4 4 5 6 8 10 11 12 13 13 13 14 16 17 13 7 5 6 7 8 8 8 9 10 9
5 4 6 8 6 4 4 6 7 8 11 13 15 15 16 18 18 19 19 18 17 15 14 14 14 14 14 13 13 14 13 12 12 12 11 9 7 6 5 5 5 5 6 7 10 12 14 16 17 16 16 17 13 8 7 8 8 8 9 9 9 9 7
5 3 4 8 8 3 2 2 4 8 12 15 16 16 15 15 16 18 18 17 15 14 13 14 14 13 13 13 14 16 16 16 15 14 14 13 11 10 9 8 8 8 8 6 7 10 12 16 20 21 20 18 15 12 9 8 8 7 8 8 8 8 7
6 4 5 9 9 3 3 7 7 10 15 17 17 15 14 13 14 15 15 14 13 13 13 13 13 13 14 15 15 16 17 17 18 17 17 16 15 14 13 12 10 11 12 11 11 12 13 13 14 16 15 11 8 10 11 10 8 6 6 7 6 6 6
7 5 6 9 6 2 2 6 9 10 15 16 15 14 13 12 13 13 14 13 13 14 14 13 13 13 14 14 15 16 17 18 19 19 18 17 17 16 15 14 12 12 13 13 13 15 16 16 16 13 11 13 14 11 8 7 7 6 5 4 4 4 4
8 7 7 7 5 1 4 5 7 11 12 12 12 13 12 11 12 13 13 13 14 14 14 14 14 14 14 15 15 15 16 17 17 18 18 17 17 17 17 17 16 14 14 13 12 13 15 16 16 19 21 20 18 16 14 12 10 8 6 4 3 2 3
9 9 8 5 3 4 6 7 9 11 11 11 11 11 11 11 12 13 13 13 14 13 12 13 14 15 16 16 16 15 15 16 16 16 16 16 16 17 18 18 18 17 16 14 13 14 15 15 14 16 18 17 15 13 12 12 12 10 8 7 5 3 2
9 9 9 7 6 7 8 8 9 10 11 11 11 11 11 11 12 12 13 13 13 12 11 11 12 12 13 15 16 16 15 15 15 16 16 15 16 17 18 18 18 18 18 16 15 15 14 14 14 15 16 16 16 15 14 13 13 12 12 11 9 7 5
8 8 8 9 9 9 9 9 10 11 11 11 11 11 11 11 11 12 12 12 12 11 12 11 11 12 13 13 13 14 14 14 14 15 16 16 16 17 17 17 18 18 18 17 16 15 15 14 14 15 15 15 15 17 17 15 14 14 15 14 13 11 10
8 9 9 10 10 10 9 10 11 11 12 12 11 10 10 10 11 11 11 10 10 10 11 11 11 12 12 13 13 13 13 14 15 15 15 16 18 18 17 16 16 16 16 16 15 14 14 13 13 13 13 12 13 15 16 15 15 15 15 15 14 13 12
10 10 10 10 9 9 10 10 11 12 11 11 11 10 10 10 10 11 11 10 9 9 9 10 10 11 11 12 13 13 13 14 15 16 15 15 16 18 17 17 17 16 15 15 14 14 13 13 12 12 11 10 9 11 12 14 15 15 14 15 15 13 13
10 10 10 10 9 9 9 10 11 11 11 11 11 10 10 10 10 10 10 10 10 9 9 9 10 10 10 11 11 11 12 13 14 17 19 18 17 16 16 17 18 19 18 16 14 13 13 13 12 11 11 11 10 9 10 12 14 14 14 13 12 12 11
10 10 9 8 8 8 9 9 9 10 10 10 10 10 10 10 10 10 10 10 9 9 8 8 9 9 9 9 9 9 10 10 11 14 18 21 21 19 18 16 16 18 20 18 15 13 12 11 12 12 12 12 12 12 11 12 14 15 14 13 12 11 10
10 10 9 8 8 8 8 8 9 9 10 9 9 10 10 10 10 10 10 10 9 8 8 8 8 9 9 9 8 8 9 9 9 9 12 15 18 19 18 17 16 17 18 17 17 16 14 13 12 12 12 13 14 13 12 12 14 14 13 12 13 13 13
11 10 10 10 9 8 8 8 7 8 9 8 8 9 9 9 9 10 10 10 9 9 10 10 9 10 11 10 10 10 8 8 8 7 8 10 10 12 14 16 16 16 16 16 16 17 16 16 14 13 11 11 12 13 12 12 12 12 10 10 11 13 13
11 10 10 10 10 9 9 8 8 8 8 8 8 8 8 8 8 9 9 9 9 9 10 11 11 11 10 9 10 11 10 8 7 7 7 7 5 4 7 10 12 13 13 13 12 13 14 14 14 14 13 12 12 12 11 10 11 11 9 9 11 12 14
10 10 9 9 9 9 8 8 8 8 7 7 7 7 7 7 7 7 8 9 9 9 9 10 10 10 10 8 8 9 9 8 7 6 5 4 3 1 3 6 8 10 9 9 8 8 10 10 11 12 12 12 13 12 11 10 10 10 9 9 9 11 13
Wind_Direction
240 257 254 242 242 277 290 248 204 198 181 186 197 181 168 167 168 172 174 175 178 181 184 186 187 188 190 192 193 192 193 192 191 193 195 196 195 194 194 197 200 199 197 197 199 204 205 202 203 203 202 204 209 212 214 217 218 219 221 227 233 232 235
280 263 217 224 254 268 297 291 240 206 185 186 205 195 173 167 170 172 176 180 181 182 187 186 187 190 190 192 195 195 196 196 194 194 196 199 200 199 199 199 201 203 205 206 202 201 205 206 204 206 206 202 204 210 213 217 217 216 222 226 228 231 236
350 278 238 195 259 271 280 294 294 237 206 195 200 202 178 166 174 181 178 180 182 184 189 188 188 191 191 193 196 197 201 200 199 199 199 200 201 202 205 205 205 205 209 214 209 200 203 207 205 207 210 207 206 208 208 213 218 216 218 220 221 226 234
171 234 245 194 279 310 300 307 344 334 273 215 196 210 194 172 173 182 182 183 185 185 188 189 189 192 192 193 196 198 202 205 204 203 203 204 201 203 209 207 206 207 210 213 214 211 205 201 203 206 210 213 214 213 209 210 217 219 218 219 221 225 232
108 128 279 301 289 23 7 334 352 345 325 345 29 304 232 198 179 180 185 184 185 188 190 190 190 194 195 194 197 200 202 206 209 208 208 209 204 204 210 209 206 209 212 211 213 219 214 202 200 203 206 212 217 219 216 212 215 220 220 220 223 226 231
70 29 304 296 294 84 79 43 33 7 350 11 19 353 241 215 193 194 207 195 189 189 190 193 194 193 195 197 199 202 202 204 210 212 212 213 209 208 211 212 210 211 214 213 212 216 218 216 211 206 204 209 215 219 219 215 216 219 220 221 222 225 230
89 80 337 343 323 7 42 44 48 37 19 10 323 297 200 209 184 199 256 242 213 199 191 194 200 196 195 201 201 201 204 204 208 213 214 215 215 213 213 213 213 213 214 214 214 214 214 216 220 218 212 209 213 218 219 217 215 217 220 220 221 226 232
59 50 31 12 331 348 8 12 32 40 23 9 349 251 203 216 214 207 221 246 217 212 203 197 204 202 197 201 204 203 208 208 206 210 214 216 218 217 216 215 214 215 216 215 216 216 215 215 217 221 222 219 218 218 221 221 216 216 221 222 221 224 230
62 63 57 26 347 350 1 357 8 24 22 12 4 359 119 174 214 226 225 43 177 201 244 295 264 235 207 199 205 208 211 214 211 211 216 218 220 221 220 218 215 215 217 220 220 218 218 219 218 219 222 225 225 223 225 225 218 215 220 225 226 225 227
48 65 80 83 350 341 44 29 11 4 11 19 10 359 21 94 190 236 22 356 21 162 202 273 276 271 234 201 205 214 219 232 229 219 219 223 223 223 225 224 221 219 218 221 223 221 219 220 223 222 220 222 227 229 230 230 225 222 223 227 230 230 229
14 41 68 95 92 2 74 101 60 11 3 20 25 7 11 34 38 50 107 21 303 228 213 211 206 230 243 217 210 217 230 270 281 262 239 239 240 236 234 231 225 222 223 224 226 227 225 218 219 225 225 222 224 228 231 232 230 229 227 228 232 232 232
19 41 50 44 37 17 14 72 80 63 20 12 31 25 9 23 36 53 133 159 204 224 212 199 200 214 236 224 215 219 218 237 271 274 253 255 278 285 277 266 253 233 223 225 229 233 233 224 220 225 228 228 226 227 230 231 231 233 232 232 235 235 234
27 42 49 40 34 26 25 44 54 53 46 24 24 34 19 13 18 27 75 125 145 177 170 166 197 205 212 211 212 222 228 219 224 240 240 241 263 281 285 292 293 278 247 231 227 230 234 230 224 223 225 229 231 232 233 233 233 234 234 235 239 241 240
38 38 49 53 47 35 26 34 38 35 38 32 19 32 42 26 360 2 22 45 54 50 48 46 71 161 211 245 224 225 240 235 223 231 245 244 247 254 261 282 296 300 298 279 244 232 236 237 235 233 229 228 230 232 234 238 240 239 240 241 240 244 247
44 35 43 53 60 60 48 39 35 28 25 21 14 16 28 45 39 327 331 342 9 46 50 50 56 56 32 335 307 275 266 266 258 256 263 264 263 263 264 269 273 282 299 304 286 251 233 229 237 242 231 222 227 230 229 236 246 245 246 248 244 245 252
47 36 33 40 47 55 58 52 43 40 33 19 14 15 13 20 23 359 330 303 288 308 23 27 32 40 39 357 318 296 285 285 282 278 279 281 280 270 261 264 260 252 268 286 295 290 260 231 231 238 238 230 234 235 230 231 239 239 244 257 253 246 249
54 39 28 29 32 36 49 55 47 43 41 32 26 27 22 19 22 15 16 21 309 290 303 324 340 353 336 311 307 297 292 294 291 286 287 288 284 278 272 265 255 247 250 261 288 305 296 276 254 242 245 256 254 243 233 234 237 235 239 256 257 243 241
71 56 37 26 27 28 33 45 46 40 38 35 30 30 28 27 33 34 33 41 39 17 355 332 317 307 293 282 302 312 302 297 295 287 287 290 287 282 281 270 254 254 259 255 268 294 296 291 277 256 250 256 261 252 242 247 249 241 240 252 253 244 243
84 79 63 32 28 36 33 35 42 43 40 36 31 32 40 46 49 48 47 52 59 64 69 70 72 73 88 247 281 301 296 284 286 293 291 295 296 285 281 278 271 267 259 251 253 264 273 282 286 274 259 249 245 237 229 243 246 241 243 254 256 250 249
87 90 87 58 26 35 45 40 47 53 46 36 32 36 48 56 58 56 53 58 66 71 77 78 75 71 64 49 337 304 305 307 304 304 306 312 318 306 295 298 302 295 275 262 263 267 270 274 278 277 270 257 255 255 233 215 224 234 241 249 254 253 252
80 79 83 69 34 29 46 42 47 61 57 41 35 42 52 60 64 62 57 56 59 60 63 67 66 62 53 46 43 33 24 26 13 339 332 335 336 333 326 327 326 309 284 272 273 275 274 271 267 269 270 268 265 258 222 203 211 224 230 234 243 246 247
84 74 75 74 57 36 36 32 39 61 70 61 48 47 54 59 62 63 60 57 55 51 50 54 55 52 48 42 37 40 48 54 53 50 42 26 11 360 350 349 336 308 287 281 278 271 268 267 264 262 265 266 262 247 216 209 207 210 216 225 235 237 237
81 72 70 71 68 64 49 30 33 55 68 68 59 51 54 60 62 62 59 54 50 46 45 47 46 46 49 47 43 45 51 56 57 56 53 47 39 28 19 14 5 344 318 304 299 292 283 275 269 264 265 263 249 221 214 216 202 200 209 215 224 229 226
92 86 83 69 58 75 121 65 45 66 73 71 65 53 48 55 65 66 62 57 51 47 46 45 42 41 45 47 47 47 51 54 57 56 53 48 43 38 34 30 29 25 16 359 342 331 315 297 282 269 262 257 240 218 216 215 198 195 206 208 214 221 216
115 119 101 78 60 35 181 169 146 99 80 76 74 66 55 54 61 68 71 69 64 57 52 48 44 41 43 46 46 48 51 54 55 54 52 48 42 37 33 28 29 32 32 34 29 14 3 350 321 285 262 252 237 210 199 193 186 192 203 200 204 212 208
120 127 106 97 95 338 275 160 140 93 72 74 76 72 67 64 63 68 72 70 65 60 53 48 46 45 45 47 49 50 51 53 54 53 50 48 45 42 38 32 28 30 34 37 34 26 25 30 30 34 62 78 78 85 107 128 140 153 172 179 181 183 178
99 92 80 88 116 85 25 60 78 72 74 84 85 78 71 66 63 64 66 65 62 59 55 50 49 48 47 48 50 51 52 53 54 53 49 48 49 47 44 42 39 38 41 44 47 45 41 42 47 54 61 70 73 65 53 50 65 89 109 119 125 139 163
113 107 104 107 116 101 81 64 61 69 73 75 78 78 72 67 63 60 58 58 58 57 55 52 48 47 48 50 48 48 51 52 54 53 51 51 53 52 48 46 46 48 53 58 61 60 54 49 51 55 57 61 66 63 52 43 41 50 64 72 71 73 105
125 123 129 135 117 98 97 88 76 76 73 68 70 74 71 68 66 62 56 51 49 51 51 50 47 47 49 51 52 53 52 52 54 55 53 51 53 55 53 50 49 48 50 54 55 55 56 55 54 56 57 57 58 57 57 53 45 40 43 46 46 44 46
114 100 93 93 88 85 91 94 92 89 83 77 74 72 69 68 68 69 64 54 48 48 50 49 50 53 50 48 52 57 57 57 56 55 54 53 52 52 49 46 47 47 47 51 55 56 57 57 56 57 54 50 49 50 52 51 45 39 38 36 32 28 25
117 106 95 88 85 86 87 89 93 94 91 88 84 76 70 67 68 72 73 67 57 53 54 53 52 55 56 52 50 52 54 57 56 54 55 54 51 51 48 44 43 43 44 46 51 56 59 59 58 60 57 50 44 43 45 45 40 35 33 31 28 26 23
129 126 119 110 104 99 92 84 81 81 82 83 84 83 79 69 62 62 66 70 67 59 58 59 55 55 58 56 54 53 53 53 52 51 53 55 53 50 48 46 46 46 45 45 45 46 49 53 54 54 53 53 48 41 41 41 39 37 34 31 29 27 26
134 127 120 117 115 108 99 91 86 81 75 70 69 71 76 73 65 58 59 63 65 63 58 57 57 58 57 56 55 54 54 58 61 59 57 59 61 59 52 47 46 48 48 47 45 43 42 43 45 42 39 36 32 30 32 32 31 34 35 34 32 29 26
121 115 111 109 106 101 95 92 93 90 84 78 72 67 68 71 70 66 62 59 61 64 58 52 55 59 56 56 59 57 55 60 69 71 67 63 61 62 62 56 51 52 52 50 49 49 46 43 41 39 36 33 28 26 28 22 19 21 25 28 29 29 29
129 125 121 112 104 101 100 98 98 96 91 87 84 77 71 69 67 67 66 61 57 56 47 39 51 62 55 46 49 59 64 63 62 70 76 71 65 63 66 67 66 63 61 60 58 57 58 59 59 54 48 41 36 34 30 23 16 15 19 27 31 32 32
139 135 131 125 119 117 114 108 105 105 101 96 92 87 80 74 70 67 66 62 57 53 40 28 36 57 59 46 33 30 43 62 64 61 69 74 72 68 69 73 75 72 69 71 70 67 63 61 62 61 56 47 42 40 36 27 21 18 21 33 40 39 36
144 142 141 139 136 132 126 120 114 109 106 102 99 93 86 81 75 70 66 60 54 53 48 36 35 47 55 51 36 22 25 47 58 58 69 77 83 95 93 88 85 81 79 79 75 71 66 60 55 53 50 43 40 38 35 30 26 23 26 38 46 48 44
147 145 144 143 140 137 133 127 119 111 105 102 100 97 91 85 76 67 66 62 52 49 50 45 45 47 45 40 32 22 25 34 33 36 58 64 46 92 141 133 115 103 96 90 82 74 70 64 56 50 45 40 36 32 28 29 29 28 33 42 47 48 48
Height
776 773 773 772 771 771 769 766 766 769 772 775 777 780 784 786 788 789 791 793 796 798 799 801 802 804 805 807 808 810 811 812 814 814 815 816 817 818 819 820 821 822 823 824 825 826 827 828 829 830 830 831 833 833 834 835 835 836 837 837 838 838 839
779 777 775 774 774 774 773 769 768 769 772 774 776 779 782 784 786 788 791 793 794 797 798 800 801 803 804 806 808 809 810 812 813 814 815 815 816 817 818 819 820 821 822 822 823 825 826 827 827 828 829 830 831 832 833 833 834 835 836 836 837 837 838
784 782 777 776 775 775 775 773 771 770 771 774 775 777 780 782 785 787 790 792 793 796 797 799 800 802 803 805 807 808 809 811 812 812 814 814 815 816 817 818 819 819 820 821 822 823 824 825 826 827 828 828 829 830 831 832 833 833 834 835 836 836 837
782 781 778 777 775 775 776 773 773 773 773 774 775 777 781 782 784 786 788 790 792 794 796 797 799 801 802 804 805 807 808 809 810 811 812 813 813 815 816 816 817 818 819 820 821 821 822 823 824 825 827 827 828 829 829 830 831 832 833 834 834 835 836
781 781 780 779 776 776 777 775 776 777 776 776 776 780 784 784 784 785 787 789 791 793 795 796 798 799 801 802 803 805 806 808 809 810 811 811 812 813 814 815 815 817 818 818 819 820 821 822 823 824 825 826 827 828 828 829 830 831 831 832 833 834 834
783 783 782 781 779 777 777 777 778 778 778 778 778 781 784 783 783 787 789 790 790 792 794 796 797 798 800 801 802 803 805 806 807 808 809 810 811 811 812 813 814 815 816 817 818 819 819 820 821 822 823 824 826 826 827 827 828 829 830 830 831 832 833
784 785 783 782 782 781 779 778 778 779 780 780 780 782 782 781 783 787 791 793 793 793 793 795 796 797 799 800 801 802 803 805 806 807 808 809 809 810 810 811 812 813 814 815 816 817 818 819 820 821 822 823 824 824 825 826 826 827 828 828 829 830 831
785 787 786 784 783 782 783 782 781 781 782 782 782 782 781 781 782 785 789 793 795 794 794 795 796 797 799 799 800 801 802 803 804 806 807 807 808 808 809 809 810 811 812 813 814 815 816 817 818 819 820 821 822 823 823 824 824 826 827 827 827 828 829
786 786 788 788 786 784 787 788 786 785 784 784 785 783 782 782 782 784 788 791 794 794 794 796 798 799 799 799 800 801 802 803 804 805 806 806 807 807 807 808 808 810 811 811 812 813 814 815 816 817 818 819 820 821 822 822 823 824 825 825 826 826 827
787 786 786 787 786 785 786 788 790 790 788 786 786 786 785 784 784 786 788 790 793 794 794 795 798 801 800 799 800 801 802 803 804 804 805 805 805 805 806 806 807 808 809 809 810 811 812 813 814 815 816 817 818 819 820 821 821 822 823 824 825 825 825
790 789 787 786 785 785 785 785 787 790 790 789 787 787 787 788 790 790 789 790 792 794 794 794 797 802 801 799 799 800 800 803 806 807 805 805 805 805 806 806 806 806 807 808 809 809 810 811 812 813 814 815 816 817 818 819 820 821 822 823 823 824 824
794 791 791 789 788 789 788 785 786 788 790 790 788 787 788 789 792 793 792 793 795 797 797 796 797 800 800 799 798 798 799 802 807 809 807 805 806 806 806 806 806 806 806 806 807 808 809 809 810 811 812 813 814 815 817 818 819 819 820 821 822 822 823
798 795 794 793 792 793 791 789 790 790 790 791 790 789 789 789 791 792 793 794 796 797 797 796 796 797 798 797 797 797 798 800 805 807 805 805 806 807 807 808 810 809 806 806 806 806 807 808 809 810 811 812 813 814 815 816 817 818 819 820 821 821 822
801 799 797 795 796 797 796 794 793 792 792 792 792 792 791 791 792 792 792 793 794 796 795 795 795 795 796 797 797 798 799 801 803 804 803 804 804 805 807 809 811 810 807 806 805 805 806 806 807 809 809 810 811 813 814 815 816 817 818 819 819 820 820
804 803 801 798 798 799 798 797 795 794 794 793 792 793 792 792 793 792 793 793 793 794 794 794 794 794 794 795 796 797 798 799 800 801 801 801 801 802 803 804 806 807 808 809 807 805 805 805 806 808 809 809 810 811 812 814 815 815 817 817 817 818 819
806 806 805 803 801 799 798 798 797 797 796 795 794 793 793 792 792 792 792 792 793 794 793 793 793 793 793 793 794 795 796 797 798 799 799 799 800 800 800 800 801 803 807 811 811 807 805 805 805 807 808 808 809 810 811 811 812 813 815 816 815 816 817
808 808 807 806 803 801 799 798 798 799 798 797 797 796 795 794 793 792 792 792 792 793 792 793 793 793 793 793 793 794 795 796 797 797 798 798 799 800 799 800 801 801 803 805 807 807 807 806 805 805 807 808 808 809 809 809 810 811 813 814 814 814 815
807 808 808 808 806 803 802 800 800 800 800 799 798 798 797 796 794 794 793 792 792 792 792 792 792 793 793 793 793 794 795 796 796 796 797 797 798 799 799 800 801 801 801 800 801 805 808 808 806 805 806 807 808 808 807 807 809 809 811 812 812 812 813
805 806 807 808 807 804 803 802 801 801 801 800 799 798 797 796 796 795 794 793 793 792 792 792 792 793 793 792 793 794 794 795 795 795 796 797 797 798 798 799 800 801 801 800 801 802 804 806 807 807 806 806 807 807 806 807 808 808 809 810 810 811 811
804 804 805 806 806 804 803 802 802 802 802 801 800 799 798 797 796 796 796 795 794 793 793 792 792 793 793 792 793 794 795 795 794 795 796 796 797 797 798 799 800 800 801 801 802 802 802 804 807 809 807 806 807 807 807 806 807 807 808 809 809 809 810
806 805 804 805 807 806 803 802 802 803 802 802 801 800 799 798 797 797 796 796 796 796 795 794 793 793 794 794 794 795 795 794 794 795 795 795 796 796 797 798 799 800 800 800 801 803 802 803 804 806 806 805 806 806 806 805 805 806 806 807 807 808 808
807 806 805 805 807 807 805 803 803 804 803 802 801 800 800 799 798 797 797 797 798 798 797 796 795 795 795 795 796 796 796 795 795 795 795 795 795 795 796 797 797 798 799 799 800 800 800 800 801 801 802 803 804 805 805 804 804 805 805 805 806 806 806
807 807 805 804 806 806 805 805 805 805 803 801 800 801 801 801 800 799 799 800 800 801 801 800 799 799 799 799 799 798 797 796 796 796 796 796 796 796 796 796 797 797 797 798 799 799 799 799 799 799 799 800 802 803 803 803 803 804 804 804 804 805 805
808 808 806 804 805 806 807 807 807 806 804 800 800 802 803 804 803 802 802 803 804 805 804 803 803 803 802 801 800 799 798 797 798 798 798 797 797 797 796 796 796 796 796 797 798 798 799 798 797 797 798 799 800 801 801 802 802 803 803 803 803 804 804
808 808 807 804 805 807 808 810 810 807 803 800 801 804 806 807 807 806 806 807 808 807 806 805 806 805 804 803 801 800 799 799 799 798 799 798 797 797 797 796 796 796 796 796 797 797 798 796 795 796 796 797 798 799 800 800 801 802 802 802 802 802 803
808 808 806 805 806 808 808 809 808 804 801 800 802 806 809 810 810 809 809 810 809 807 806 806 807 806 805 805 803 802 801 800 800 800 800 800 800 799 798 798 797 796 796 796 796 797 797 797 798 797 795 795 797 800 801 800 800 800 800 801 801 801 801
808 808 807 807 808 808 807 807 805 803 803 804 806 808 811 811 811 811 811 810 809 809 808 808 807 806 806 806 805 804 804 803 803 803 802 803 803 802 801 801 799 798 798 797 798 799 800 801 801 800 798 797 799 802 803 802 801 800 799 800 800 800 800
808 809 810 810 810 810 809 809 808 807 807 807 808 810 811 812 812 812 812 811 811 811 810 809 808 808 807 807 807 806 806 805 805 805 806 806 805 805 804 804 803 802 801 801 801 802 803 804 804 802 802 802 802 803 803 804 803 802 800 800 800 800 800
808 809 810 810 811 811 811 811 811 811 811 811 812 812 813 813 813 813 814 813 812 812 812 811 810 810 809 809 809 808 808 808 808 808 808 808 808 807 807 806 806 805 804 804 804 805 806 807 807 806 806 806 805 805 804 804 805 805 803 801 801 802 801
809 810 810 811 812 812 812 814 813 813 814 814 814 815 815 815 815 814 815 815 815 814 814 813 812 812 811 811 811 810 811 810 810 810 810 810 809 808 808 808 807 807 807 807 807 807 808 809 810 810 809 809 808 807 807 807 808 807 805 803 803 804 803
810 811 812 812 813 814 814 815 814 814 815 815 816 817 817 816 816 815 815 816 816 816 815 815 814 814 813 813 813 813 813 812 812 812 811 811 810 809 809 810 809 809 810 809 809 810 810 811 811 811 811 811 811 810 810 810 809 808 806 805 805 805 804
810 811 812 813 814 815 815 816 815 815 815 816 816 817 818 818 817 816 816 817 817 817 816 816 816 815 815 815 814 814 815 814 814 813 813 812 812 812 812 812 811 811 811 811 811 811 811 812 812 812 813 813 813 813 812 811 810 809 808 807 806 806 806
810 811 812 813 814 815 816 816 817 817 817 818 818 818 818 819 819 818 818 818 818 818 818 817 817 816 816 815 815 816 816 816 815 815 815 814 814 814 814 814 813 813 812 812 812 812 813 813 813 813 813 814 813 813 813 812 811 810 809 808 808 808 808
810 811 813 814 814 815 816 817 818 819 819 820 820 820 820 820 820 820 820 820 820 820 819 819 818 817 817 817 817 817 817 817 817 817 817 817 816 816 815 816 815 815 814 814 814 814 814 814 814 814 814 814 814 813 813 813 812 811 810 810 810 809 809
812 813 814 815 816 817 817 818 819 820 820 821 821 822 822 822 822 822 821 821 821 821 820 820 819 819 818 818 818 818 818 819 819 819 818 818 818 818 817 817 817 817 817 817 816 816 816 816 816 816 816 816 815 815 814 814 814 813 813 812 811 811 810
812 814 815 816 817 818 819 820 821 821 822 822 822 822 823 823 823 823 822 823 822 822 821 821 820 820 820 820 820 820 819 820 820 820 820 820 820 820 820 819 819 818 818 818 818 818 818 818 818 818 818 818 817 817 816 816 816 815 814 814 813 813 812
812 813 815 816 817 819 820 821 822 822 822 822 822 823 823 823 823 823 823 823 823 823 822 822 821 821 822 822 822 821 820 821 821 821 821 821 821 821 821 821 820 820 820 820 820 820 820 820 820 820 820 819 819 818 818 817 817 816 815 815 814 814 813
811 813 815 816 817 819 820 821 822 822 822 822 823 823 823 823 824 823 823 824 824 823 823 823 823 823 823 823 823 823 822 822 822 821 821 821 821 821 821 821 821 821 821 821 821 821 820 820 820 821 820 820 820 820 819 818 817 817 816 816 815 815 814